When you browse on this site, cookies collect data to enhance your experience and personalize the content and advertising you see.
Visit our Privacy Policy to learn more. By continuing to use the site, you agree to this use of cookies and data.
EN

Hourly Weather Adria

Today, 7 August, Friday

Time Temperature Precipitation Wind Pressure Humidity
00:00 +24°C° 0 mm 3 mps 764 mmHg 77%
01:00 +24°C° 0 mm 3 mps 764 mmHg 79%
02:00 +22°C° 0 mm 3 mps 764 mmHg 81%
03:00 +22°C° 0 mm 3 mps 763 mmHg 83%
04:00 +21°C° 0 mm 4 mps 763 mmHg 85%
05:00 +22°C° 0 mm 3 mps 763 mmHg 83%
06:00 +24°C° 0 mm 3 mps 763 mmHg 80%
07:00 +24°C° 0 mm 2 mps 764 mmHg 78%
08:00 +26°C° 0 mm 3 mps 764 mmHg 71%
09:00 +28°C° 0 mm 3 mps 763 mmHg 65%
10:00 +29°C° 0 mm 3 mps 763 mmHg 58%
11:00 +30°C° 0 mm 3 mps 763 mmHg 53%
12:00 +31°C° 0 mm 3 mps 763 mmHg 48%
13:00 +33°C° 0 mm 4 mps 763 mmHg 43%
14:00 +33°C° 0 mm 3 mps 763 mmHg 43%
15:00 +34°C° 0 mm 3 mps 762 mmHg 42%
16:00 +34°C° 0 mm 3 mps 762 mmHg 41%
17:00 +31°C° 0 mm 3 mps 762 mmHg 46%
18:00 +30°C° 0 mm 3 mps 763 mmHg 52%
19:00 +28°C° 0 mm 3 mps 763 mmHg 57%
20:00 +27°C° 0 mm 3 mps 763 mmHg 57%
21:00 +26°C° 0 mm 3 mps 763 mmHg 58%
22:00 +26°C° 0 mm 3 mps 764 mmHg 58%
23:00 +25°C° 0 mm 3 mps 764 mmHg 59%

Tomorrow, 8 August, Saturday

Time Temperature Precipitation Wind Pressure Humidity
00:00 +25°C° 0 mm 2 mps 764 mmHg 60%
01:00 +25°C° 0 mm 2 mps 764 mmHg 61%
02:00 +24°C° 0 mm 2 mps 764 mmHg 62%
03:00 +24°C° 0 mm 2 mps 764 mmHg 64%
04:00 +23°C° 0 mm 2 mps 764 mmHg 65%
05:00 +24°C° 0 mm 2 mps 764 mmHg 65%
06:00 +25°C° 0 mm 2 mps 764 mmHg 65%
07:00 +25°C° 0 mm 3 mps 764 mmHg 65%
08:00 +27°C° 0 mm 2 mps 764 mmHg 60%
09:00 +29°C° 0 mm 2 mps 763 mmHg 54%
10:00 +30°C° 0 mm 2 mps 763 mmHg 49%
11:00 +32°C° 0 mm 2 mps 763 mmHg 45%
12:00 +34°C° 0 mm 2 mps 763 mmHg 41%
13:00 +35°C° 0 mm 2 mps 762 mmHg 37%
14:00 +35°C° 0 mm 2 mps 762 mmHg 37%
15:00 +35°C° 0 mm 3 mps 762 mmHg 36%
16:00 +35°C° 0 mm 3 mps 761 mmHg 36%
17:00 +32°C° 0 mm 2 mps 762 mmHg 41%
18:00 +31°C° 0 mm 2 mps 762 mmHg 47%
19:00 +29°C° 0 mm 2 mps 762 mmHg 53%
20:00 +28°C° 0 mm 2 mps 762 mmHg 54%
21:00 +27°C° 0 mm 2 mps 762 mmHg 54%
22:00 +27°C° 0 mm 2 mps 763 mmHg 55%
23:00 +26°C° 0 mm 2 mps 762 mmHg 57%

Day after tomorrow, 9 August, Sunday

Time Temperature Precipitation Wind Pressure Humidity
00:00 +26°C° 0 mm 2 mps 762 mmHg 59%
01:00 +25°C° 0 mm 2 mps 762 mmHg 61%
02:00 +25°C° 0 mm 2 mps 762 mmHg 63%
03:00 +24°C° 0 mm 2 mps 762 mmHg 65%
04:00 +24°C° 0 mm 2 mps 762 mmHg 67%
05:00 +25°C° 0 mm 2 mps 762 mmHg 67%
06:00 +25°C° 0 mm 2 mps 762 mmHg 67%
07:00 +26°C° 0 mm 2 mps 762 mmHg 66%
08:00 +28°C° 0 mm 2 mps 762 mmHg 61%
09:00 +30°C° 0 mm 2 mps 762 mmHg 56%
10:00 +31°C° 0 mm 2 mps 762 mmHg 50%
11:00 +32°C° 0 mm 2 mps 761 mmHg 47%
12:00 +34°C° 0 mm 2 mps 761 mmHg 43%
13:00 +35°C° 0 mm 2 mps 761 mmHg 40%
14:00 +35°C° 0 mm 2 mps 761 mmHg 40%
15:00 +35°C° 0 mm 2 mps 760 mmHg 39%
16:00 +34°C° 0 mm 1 mps 760 mmHg 39%
17:00 +33°C° 0 mm 1 mps 760 mmHg 44%
18:00 +31°C° 0 mm 1 mps 760 mmHg 48%
19:00 +30°C° 0 mm 1 mps 760 mmHg 53%
20:00 +29°C° 0 mm 1 mps 761 mmHg 54%
21:00 +28°C° 0 mm 1 mps 761 mmHg 55%
22:00 +27°C° 0 mm 1 mps 761 mmHg 55%
23:00 +27°C° 0 mm 1 mps 761 mmHg 58%

10 August, Monday

Time Temperature Precipitation Wind Pressure Humidity
00:00 +26°C° 0 mm 1 mps 761 mmHg 61%
01:00 +26°C° 0 mm 2 mps 761 mmHg 64%
02:00 +25°C° 0 mm 2 mps 761 mmHg 67%
03:00 +25°C° 0 mm 2 mps 761 mmHg 70%
04:00 +25°C° 0 mm 2 mps 761 mmHg 73%
05:00 +25°C° 0 mm 2 mps 761 mmHg 73%
06:00 +26°C° 0 mm 2 mps 761 mmHg 72%
07:00 +26°C° 0 mm 3 mps 761 mmHg 71%
08:00 +28°C° 0 mm 2 mps 761 mmHg 64%
09:00 +30°C° 0 mm 2 mps 761 mmHg 58%
10:00 +32°C° 0 mm 2 mps 761 mmHg 51%
11:00 +32°C° 0 mm 2 mps 761 mmHg 47%
12:00 +34°C° 0 mm 2 mps 760 mmHg 44%
13:00 +35°C° 0 mm 2 mps 760 mmHg 40%
14:00 +35°C° 0 mm 2 mps 760 mmHg 40%
15:00 +35°C° 0 mm 2 mps 760 mmHg 39%
16:00 +34°C° 0 mm 1 mps 760 mmHg 39%
17:00 +33°C° 0 mm 1 mps 760 mmHg 44%
18:00 +31°C° 0 mm 1 mps 760 mmHg 48%
19:00 +30°C° 0 mm 1 mps 760 mmHg 53%
20:00 +29°C° 0 mm 1 mps 760 mmHg 53%
21:00 +28°C° 0 mm 1 mps 760 mmHg 53%
22:00 +27°C° 0 mm 1 mps 761 mmHg 53%
23:00 +26°C° 0 mm 1 mps 761 mmHg 55%

11 August, Tuesday

Time Temperature Precipitation Wind Pressure Humidity
00:00 +26°C° 0 mm 1 mps 761 mmHg 56%
01:00 +25°C° 0 mm 1 mps 761 mmHg 58%
02:00 +25°C° 0 mm 1 mps 761 mmHg 59%
03:00 +25°C° 0 mm 1 mps 761 mmHg 61%
04:00 +25°C° 0 mm 1 mps 761 mmHg 63%
05:00 +25°C° 0 mm 1 mps 761 mmHg 64%
06:00 +26°C° 0 mm 2 mps 761 mmHg 65%
07:00 +27°C° 0 mm 2 mps 761 mmHg 66%
08:00 +29°C° 0 mm 2 mps 761 mmHg 61%
09:00 +30°C° 0 mm 1 mps 761 mmHg 57%
10:00 +32°C° 0 mm 1 mps 761 mmHg 52%
11:00 +33°C° 0 mm 1 mps 761 mmHg 48%
12:00 +34°C° 0 mm 1 mps 760 mmHg 45%
13:00 +36°C° 0 mm 2 mps 760 mmHg 42%
14:00 +36°C° 0 mm 2 mps 760 mmHg 42%
15:00 +36°C° 0 mm 2 mps 760 mmHg 42%
16:00 +35°C° 0 mm 2 mps 759 mmHg 43%
17:00 +34°C° 0 mm 2 mps 760 mmHg 49%
18:00 +31°C° 0 mm 2 mps 760 mmHg 55%
19:00 +29°C° 0 mm 2 mps 760 mmHg 60%
20:00 +28°C° 0 mm 2 mps 760 mmHg 62%
21:00 +27°C° 0 mm 2 mps 760 mmHg 64%
22:00 +26°C° 0 mm 1 mps 760 mmHg 66%
23:00 +26°C° 0 mm 1 mps 760 mmHg 67%

12 August, Wednesday

Time Temperature Precipitation Wind Pressure Humidity
00:00 +26°C° 0 mm 1 mps 760 mmHg 68%
01:00 +25°C° 0 mm 1 mps 760 mmHg 69%
02:00 +25°C° 0.1 mm 1 mps 760 mmHg 70%
03:00 +25°C° 0.1 mm 2 mps 760 mmHg 71%
04:00 +25°C° 0.1 mm 2 mps 760 mmHg 72%
05:00 +25°C° 0 mm 1 mps 760 mmHg 72%
06:00 +26°C° 0 mm 1 mps 760 mmHg 72%
07:00 +27°C° 0 mm 1 mps 760 mmHg 72%
08:00 +28°C° 0 mm 1 mps 760 mmHg 66%
09:00 +30°C° 0 mm 1 mps 760 mmHg 60%
10:00 +32°C° 0 mm 1 mps 759 mmHg 54%
11:00 +32°C° 0 mm 1 mps 759 mmHg 50%
12:00 +33°C° 0 mm 1 mps 759 mmHg 47%
13:00 +35°C° 0 mm 2 mps 759 mmHg 44%
14:00 +35°C° 0 mm 2 mps 759 mmHg 45%
15:00 +35°C° 0 mm 2 mps 758 mmHg 45%
16:00 +35°C° 0 mm 2 mps 758 mmHg 45%
17:00 +32°C° 0 mm 2 mps 758 mmHg 50%
18:00 +30°C° 0 mm 2 mps 758 mmHg 54%
19:00 +29°C° 0 mm 2 mps 758 mmHg 59%
20:00 +28°C° 0.1 mm 2 mps 759 mmHg 61%
21:00 +27°C° 0.1 mm 2 mps 759 mmHg 63%
22:00 +26°C° 0.1 mm 2 mps 759 mmHg 65%
23:00 +26°C° 0.1 mm 2 mps 759 mmHg 67%
Show more